DW3195 Weather Reports


time (UTC)temp
F
wind
direction
speed
knots
gust
knots
rain 1hr
in
rain 24hr
in
rain mn
in
humidity
%
barometer
mb
20260508074005 31 48 0.0 0.9 0.00 0.14 0.00 98 924.2
20260508073004 31 15 0.0 0.9 0.00 0.14 0.00 98 924.2
20260508071007 32 157 0.0 0.9 0.00 0.14 0.00 98 924.0
20260508070507 32 37 0.0 0.9 0.00 0.14 0.00 98 924.1
20260508070007 32 187 0.0 0.9 0.00 0.14 0.00 98 924.0
20260508064506 32 4 0.9 0.9 0.00 0.14 0.00 98 924.0
20260508064006 32 36 0.0 0.9 0.00 0.14 0.00 98 924.0
20260508063507 33 21 0.0 1.7 0.00 0.14 0.00 98 924.0
20260508063006 33 11 0.0 0.9 0.00 0.14 0.00 98 924.0
20260508061506 33 313 0.0 2.6 0.00 0.14 0.00 98 924.1
20260508061006 34 12 0.9 2.6 0.00 0.14 0.00 98 924.3
20260508060508 34 67 0.0 0.9 0.00 0.14 0.00 98 924.3
20260508060006 34 355 0.0 2.6 0.00 0.14 0.00 98 924.3
20260508054506 34 208 0.0 0.9 0.00 0.14 0.00 98 924.4
20260508053506 34 354 0.0 1.7 0.00 0.14 0.00 98 924.5
20260508053006 35 283 0.0 0.9 0.00 0.14 0.00 98 924.4
20260508051506 35 45 0.0 0.9 0.00 0.14 0.00 98 924.2
20260508051006 35 72 0.0 0.9 0.00 0.14 0.00 98 924.2
20260508050506 35 19 0.9 1.7 0.00 0.15 0.00 98 924.1
20260508044505 36 142 0.0 0.9 0.05 0.15 0.00 98 923.8
20260508044005 36 346 0.0 0.9 0.05 0.15 0.00 97 923.8
20260508043506 36 12 0.0 0.9 0.05 0.16 0.00 97 923.7
20260508043007 36 60 0.9 1.7 0.05 0.16 0.00 97 923.6
20260508041006 38 26 0.0 0.9 0.05 0.16 0.00 97 923.7
20260508040506 38 77 0.0 0.9 0.05 0.16 0.00 97 923.8
20260508040005 38 14 0.0 0.9 0.00 0.11 0.00 97 923.8
20260508034505 39 352 0.0 0.9 0.00 0.11 0.05 97 923.7
20260508034006 39 12 0.9 1.7 0.00 0.11 0.05 97 923.6
20260508033506 39 27 0.9 0.9 0.00 0.11 0.05 97 923.6
20260508033005 39 0 0.9 1.7 0.00 0.11 0.05 97 923.6
20260508031505 39 56 0.0 1.7 0.00 0.11 0.05 97 923.5
20260508031006 39 14 0.9 1.7 0.00 0.11 0.05 97 923.5
20260508030506 39 221 0.9 1.7 0.00 0.11 0.05 96 923.6
20260508030005 39 58 0.9 1.7 0.00 0.15 0.05 96 923.5
20260508024505 39 160 0.0 0.9 0.00 0.15 0.05 96 923.4
20260508024006 39 11 0.0 0.9 0.00 0.15 0.05 96 923.3
20260508023505 39 32 0.9 1.7 0.00 0.15 0.05 96 923.2
20260508023005 40 19 0.0 1.7 0.00 0.15 0.05 96 923.1
20260508021505 40 17 0.0 1.7 0.00 0.16 0.05 96 923.0
20260508021005 40 2 0.0 1.7 0.00 0.17 0.05 95 922.9
20260508020505 41 29 0.9 1.7 0.00 0.17 0.05 95 922.9
20260508014505 41 2 0.0 1.7 0.00 0.29 0.05 95 922.6
20260508014005 42 39 0.9 2.6 0.00 0.29 0.05 95 922.6
20260508013505 42 17 0.9 1.7 0.00 0.29 0.05 94 922.5
20260508013005 42 359 0.0 1.7 0.00 0.35 0.05 94 922.5
20260508011505 43 46 0.0 0.9 0.00 0.36 0.05 93 922.2
20260508010005 44 101 0.0 1.7 0.00 0.37 0.05 92 922.1
20260508004505 45 103 0.9 1.7 0.00 0.37 0.05 91 922.0
20260508003005 46 26 0.0 1.7 0.00 0.51 0.05 88 921.8
20260508001004 49 67 0.9 2.6 0.00 0.51 0.05 84 921.8
20260508000505 49 349 1.7 2.6 0.00 0.69 0.05 83 921.8
20260508000005 50 11 1.7 4.3 0.00 0.69 0.05 81 921.8
20260507234505 51 287 1.7 4.3 0.00 0.70 0.05 77 921.7
20260507234004 51 11 0.9 2.6 0.00 0.70 0.05 80 921.7
20260507233505 51 15 1.7 2.6 0.00 0.70 0.05 80 921.7
20260507233005 51 19 0.9 2.6 0.00 0.70 0.05 80 921.7
20260507231505 52 32 0.9 1.7 0.00 0.70 0.05 79 921.6
20260507231004 52 215 0.0 1.7 0.00 0.70 0.05 78 921.5
20260507230005 53 13 0.0 4.3 0.00 0.70 0.05 75 921.5
20260507224005 54 322 0.9 4.3 0.00 0.70 0.05 73 921.4
20260507221506 53 225 1.7 5.2 0.00 0.70 0.05 72 921.2
20260507221007 53 204 1.7 4.3 0.00 0.70 0.05 73 921.2
20260507220506 54 207 0.9 4.3 0.00 0.70 0.05 72 921.1
20260507220006 54 198 0.9 4.3 0.00 0.70 0.05 71 921.2
20260507214006 54 355 1.7 4.3 0.00 0.70 0.05 72 921.1
20260507213006 54 110 0.9 8.7 0.00 0.71 0.05 70 921.1
20260507211506 55 306 3.5 7.8 0.00 0.72 0.05 71 920.9
20260507211006 54 287 2.6 7.8 0.00 0.72 0.05 69 921.0
20260507210506 54 318 1.7 4.3 0.00 0.72 0.05 73 920.9
20260507210006 53 257 1.7 6.1 0.00 0.72 0.05 75 920.9
20260507204505 54 293 2.6 7.0 0.00 0.72 0.05 72 920.9
20260507204006 54 225 4.3 7.8 0.00 0.72 0.05 71 920.8
20260507203506 54 269 2.6 6.1 0.00 0.72 0.05 74 920.7
20260507203006 53 284 2.6 5.2 0.00 0.72 0.05 76 920.8
20260507201505 51 230 1.7 4.3 0.00 0.72 0.05 79 921.1
20260507201006 51 243 1.7 7.0 0.00 0.72 0.05 78 921.2
20260507200506 51 282 2.6 6.1 0.00 0.72 0.05 78 921.2
20260507194506 51 268 2.6 6.1 0.00 0.72 0.05 79 921.2
20260507194006 51 356 2.6 5.2 0.00 0.72 0.05 78 921.2
20260507193505 51 274 4.3 8.7 0.00 0.72 0.05 77 921.2
20260507193006 51 124 0.9 6.1 0.00 0.72 0.05 78 921.2
20260507191506 51 344 2.6 7.0 0.00 0.72 0.05 78 921.4
20260507191006 52 281 3.5 7.8 0.00 0.72 0.05 80 921.3
20260507190006 51 339 2.6 5.2 0.00 0.72 0.05 81 921.5
20260507184005 51 256 1.7 5.2 0.00 0.72 0.05 79 921.8
20260507183506 51 275 0.9 4.3 0.00 0.72 0.05 80 921.8
20260507183006 51 259 1.7 5.2 0.00 0.72 0.05 81 921.8
20260507181006 51 184 1.7 4.3 0.00 0.72 0.05 81 921.5
20260507180007 51 340 1.7 5.2 0.00 0.72 0.05 80 921.5
20260507174505 51 276 1.7 4.3 0.00 0.72 0.05 82 921.6
20260507174006 51 145 2.6 6.1 0.00 0.72 0.05 79 921.6
20260507173506 51 167 0.9 4.3 0.00 0.72 0.05 79 921.7
20260507173005 51 326 1.7 6.1 0.00 0.72 0.05 80 921.8
20260507171505 51 76 0.9 1.7 0.00 0.72 0.05 79 921.6
20260507171005 50 265 1.7 4.3 0.00 0.72 0.05 82 921.6
20260507170505 50 315 1.7 4.3 0.00 0.72 0.05 82 921.8
20260507170005 50 231 1.7 7.8 0.00 0.72 0.05 80 921.7
20260507164505 50 19 2.6 4.3 0.00 0.72 0.05 80 921.6
20260507164006 51 305 1.7 4.3 0.00 0.73 0.05 80 921.6
20260507163505 51 108 1.7 2.6 0.00 0.73 0.05 79 921.7
20260507161505 51 60 1.7 5.2 0.00 0.75 0.05 80 921.8
20260507161005 50 228 0.9 4.3 0.00 0.75 0.05 81 921.8
20260507160005 50 39 0.9 5.2 0.00 0.75 0.05 80 921.8
20260507154505 48 166 0.9 5.2 0.00 0.82 0.05 85 921.8
20260507154008 49 155 4.3 7.0 0.00 0.84 0.05 81 921.9
20260507153505 49 124 2.6 5.2 0.00 0.84 0.05 84 921.8
20260507153005 49 97 0.9 4.3 0.00 1.01 0.05 85 921.8
20260507150505 46 339 0.9 1.7 0.00 1.01 0.05 91 921.9
20260507150006 46 339 0.9 2.6 0.00 1.01 0.05 91 922.1
20260507144504 46 142 1.7 4.3 0.00 1.03 0.05 93 922.1
20260507144005 46 149 1.7 2.6 0.00 1.03 0.05 94 922.0
20260507143505 45 138 0.9 1.7 0.00 1.03 0.05 97 922.0
20260507143005 45 161 0.9 1.7 0.00 1.05 0.05 97 922.0
20260507141504 45 109 0.9 1.7 0.00 1.08 0.05 97 922.0
20260507141006 45 228 0.9 1.7 0.00 1.09 0.05 97 922.0
20260507140505 45 86 0.9 1.7 0.00 1.09 0.05 97 922.1
20260507140005 45 9 0.0 2.6 0.00 1.11 0.05 98 922.2
20260507134504 45 132 1.7 2.6 0.00 1.14 0.05 98 922.0
20260507134005 45 114 1.7 4.3 0.00 1.14 0.05 97 922.0
20260507133504 46 71 1.7 4.3 0.00 1.14 0.05 97 922.1
20260507133004 46 172 0.9 2.6 0.00 1.14 0.05 98 922.0
20260507131504 46 138 0.0 1.7 0.00 1.15 0.05 98 922.2
20260507131006 46 311 0.0 0.9 0.00 1.16 0.05 98 922.1
20260507130506 46 209 0.0 1.7 0.00 1.16 0.05 98 922.1
20260507130006 46 145 0.9 2.6 0.00 1.18 0.05 98 922.0
20260507124506 46 193 1.7 2.6 0.00 1.22 0.05 98 922.1
20260507124006 46 162 0.9 5.2 0.00 1.23 0.05 98 922.0
20260507123506 46 154 0.9 2.6 0.00 1.25 0.05 98 922.0
20260507123006 46 330 0.9 2.6 0.00 1.26 0.05 98 922.3
20260507121505 47 172 0.9 1.7 0.01 1.29 0.05 98 922.1
20260507121006 47 0 1.7 2.6 0.01 1.30 0.05 98 922.1
20260507120506 47 4 0.9 1.7 0.01 1.31 0.05 98 922.0
20260507120006 47 191 0.9 5.2 0.01 1.33 0.05 98 921.9
20260507114506 48 310 1.7 2.6 0.01 1.35 0.05 98 921.7
20260507114006 48 236 0.9 1.7 0.01 1.35 0.05 98 921.5
20260507113506 48 259 0.9 1.7 0.01 1.35 0.05 98 921.6
20260507113006 48 309 0.9 1.7 0.01 1.35 0.05 98 921.6
20260507111507 48 211 1.7 1.7 0.01 1.36 0.05 98 921.6
20260507111006 48 275 0.9 1.7 0.00 1.36 0.04 98 921.7
20260507110005 48 148 1.7 2.6 0.02 1.36 0.04 98 921.3
20260507104506 48 266 0.9 2.6 0.03 1.37 0.04 98 921.4
20260507104005 48 291 0.9 1.7 0.03 1.37 0.04 98 921.2
20260507103505 48 289 0.0 1.7 0.03 1.37 0.04 98 921.1
20260507103005 48 307 0.0 1.7 0.03 1.37 0.04 98 921.1
20260507101507 48 302 0.9 1.7 0.06 1.37 0.08 98 921.3
20260507101006 48 210 0.0 0.9 0.06 1.37 0.07 98 921.1
20260507100506 48 301 0.0 1.7 0.05 1.35 0.07 98 920.9
20260507100005 48 13 0.0 1.7 0.01 1.33 0.02 98 920.9
20260507094006 48 31 0.9 0.9 0.00 1.33 0.01 98 920.8
20260507093506 48 126 0.0 0.9 0.00 1.34 0.01 98 920.8
20260507093006 48 127 0.0 1.7 0.00 1.34 0.01 98 920.9
20260507091505 48 306 0.0 0.9 0.00 1.34 0.01 98 921.3
20260507091005 48 160 0.0 0.9 0.00 1.34 0.01 98 921.4
20260507090506 48 155 0.9 1.7 0.00 1.34 0.01 98 921.4
20260507090006 48 191 0.9 2.6 0.00 1.34 0.01 98 921.6
20260507084006 48 268 0.9 2.6 0.00 1.34 0.01 98 921.6
20260507083005 48 214 0.9 4.3 0.00 1.34 0.01 98 921.5
20260507081505 48 296 0.9 1.7 0.00 1.34 0.01 98 921.3
20260507081005 48 305 0.9 1.7 0.00 1.34 0.01 98 921.1
20260507080005 48 246 0.9 4.3 0.00 1.34 0.01 98 921.2